1998-067HU

Last updated on Fri May 20 2016 09:36:28 GMT+0000 (Coordinated Universal Time)

1 41474U 98067HU 16141.19416106 .00031047 00000-0 44988-3 0 9992 2 41474 51.6430 197.6621 0003633 35.8591 64.8899 15.55578534 573

Satellite not in orbit